User: anonymous   Login
Location: Bangkok
(13.7500°N, 100.5170°E)
Time: 06:48:05
(UTC+07:00)
Language:

Cosmos 1802 Rocket - Orbit

View from above orbital plane
View from above orbital plane
View from above satellite
View from above satellite

Ground track
Ground track

The orbit data is extracted from the following two-line orbital elements,

1 17160U 86093B   16338.27946068  .00000091  00000-0  80219-4 0  9998
2 17160  82.9285 209.6343 0038652 336.5374 161.4701 13.74585022505954
Epoch (UTC): 03 December 2016 06:42:25
Eccentricity: 0.0038652
inclination: 82.9285°
perigee height: 955 km
apogee height: 1011 km
right ascension of ascending node: 209.6343°
argument of perigee: 336.5374°
revolutions per day: 13.74585022
mean anomaly at epoch: 161.4701°
orbit number at epoch: 50595

The dashed part of the orbit path shows where the satellite is in the earth's shadow,  

DLR